Wind_Speed
53 53 52 52 52 52 51 52 53 53 52 52 53 54 55 55 57 57 58 58 59 60 60 60 59 59 58 58 57 56 56 55 55 55 54 54 54 53
54 54 53 53 53 53 53 54 55 55 55 54 54 55 56 57 57 58 59 59 59 60 60 60 60 60 59 59 58 58 57 56 55 55 55 56 55 55
54 54 53 54 55 55 55 56 56 57 57 56 57 58 58 58 58 59 60 61 60 60 60 60 60 60 60 60 59 59 58 58 58 57 57 57 57 57
54 55 55 56 56 57 57 57 57 58 58 58 58 59 59 60 60 60 61 61 61 60 60 60 60 61 61 61 60 60 60 59 59 59 59 59 59 58
55 55 56 57 58 58 58 58 58 59 59 59 59 60 60 61 61 61 61 62 61 61 60 60 61 61 61 61 61 61 62 61 61 61 61 60 59 59
56 57 57 58 59 58 58 58 59 60 60 60 59 59 60 61 62 62 62 63 63 63 62 62 62 62 62 62 63 62 62 62 62 63 63 63 62 61
56 57 58 58 58 58 58 58 59 60 61 61 61 61 61 62 63 63 63 63 63 63 63 63 62 62 62 63 64 63 63 63 63 64 64 64 65 64
56 57 58 57 58 58 58 58 59 60 61 62 62 62 63 63 63 63 63 63 62 62 64 62 62 61 61 62 63 64 64 64 64 64 65 65 65 66
58 57 57 58 58 58 58 58 59 60 60 61 61 61 62 62 62 63 63 63 63 63 64 63 63 62 62 63 63 64 65 65 65 64 64 66 66 66
59 59 58 58 58 59 59 59 59 59 60 61 61 61 62 62 62 63 63 63 63 63 64 64 64 64 64 63 63 64 65 66 66 66 66 66 67 67
59 59 59 58 57 58 59 59 59 59 60 61 61 62 62 62 62 63 62 63 62 62 62 63 62 63 63 63 63 63 64 65 66 67 67 67 68 67
59 59 59 58 58 58 59 59 59 60 60 61 62 62 61 62 62 63 63 63 63 62 61 61 61 62 61 61 61 62 63 64 66 66 66 67 67 68
58 58 58 58 59 59 60 60 60 60 61 61 61 61 61 62 62 62 63 63 62 62 62 62 61 61 62 61 61 62 63 64 65 66 66 67 67 68
57 58 58 58 59 60 61 61 61 61 61 61 62 61 61 61 61 61 61 62 62 61 61 62 61 62 62 62 61 62 63 63 64 65 66 66 66 66
57 57 58 58 59 60 61 62 62 62 62 61 61 61 61 61 61 61 61 61 61 61 61 61 61 61 62 61 61 61 62 62 63 63 64 64 64 64
57 58 58 58 59 60 60 60 61 61 61 61 61 60 60 60 60 60 60 60 60 59 60 61 60 60 60 60 60 60 60 61 61 62 62 62 62 62
56 56 56 57 57 57 58 58 58 59 59 59 59 59 59 59 59 59 59 59 59 59 58 58 59 59 58 57 57 57 58 58 60 60 59 59 59 59
55 55 55 55 56 55 55 56 56 57 57 57 57 57 57 56 56 56 57 57 56 56 56 56 56 57 56 56 55 55 56 56 57 57 57 56 55 56
54 54 54 54 54 53 53 54 54 54 54 54 54 54 54 54 53 54 54 54 53 53 53 54 54 55 55 54 53 54 54 54 54 53 52 52 51 52
52 52 51 52 52 51 51 51 50 50 50 50 50 50 50 50 50 50 50 50 50 50 50 51 51 52 52 52 51 51 52 52 51 50 49 50 50 50
49 49 49 49 49 49 49 48 48 47 47 46 46 45 45 46 46 46 46 46 47 47 47 48 48 49 49 49 49 48 48 49 49 48 48 48 48 48
47 47 47 47 46 46 46 46 45 45 44 44 43 43 43 43 44 44 44 44 44 45 45 46 46 47 47 47 46 45 45 46 46 47 47 47 46 45
44 44 44 45 45 44 44 43 43 43 43 43 42 42 41 42 42 42 42 43 43 43 43 43 44 44 44 44 44 43 43 43 44 44 44 45 45 44
Wind_Direction
264 264 264 263 262 261 260 261 261 261 261 262 263 262 263 264 264 264 265 265 265 265 266 266 266 266 266 266 266 265 265 265 265 265 265 266 266 267
265 264 263 262 262 261 261 262 262 263 262 263 263 263 265 266 266 266 266 266 266 266 266 266 266 265 265 265 265 264 264 264 264 264 264 265 266 266
266 264 263 263 262 261 262 263 263 263 263 264 264 265 266 267 267 266 267 266 266 266 266 265 266 266 265 265 264 264 263 263 263 264 263 264 265 265
266 265 264 263 262 262 263 264 263 263 264 264 265 266 266 266 267 266 266 266 266 266 265 265 265 265 265 265 265 264 263 263 263 263 262 263 264 264
266 266 265 263 263 263 265 265 264 265 265 265 266 266 266 266 266 266 266 266 266 266 266 265 265 265 265 265 265 265 264 264 263 263 263 263 263 264
267 267 266 264 264 264 266 265 265 265 266 266 267 267 267 267 267 267 266 266 266 266 265 265 265 265 265 265 265 265 265 265 265 264 263 263 264 264
268 268 267 266 265 265 267 267 266 266 267 267 268 269 268 268 267 267 266 266 266 265 265 265 265 265 265 265 265 265 265 265 265 264 264 264 265 264
269 268 267 266 266 266 268 268 268 268 268 269 269 269 269 269 268 267 267 266 266 265 265 265 265 265 266 266 266 266 265 264 264 265 265 265 265 265
268 268 267 267 266 267 268 268 268 268 269 269 269 270 269 269 268 268 267 267 267 266 266 265 265 265 266 267 267 267 266 265 265 265 266 265 265 266
268 268 268 268 268 269 268 269 269 269 269 269 270 270 269 269 268 268 268 268 268 268 267 267 266 266 267 267 268 267 266 266 265 266 266 266 266 266
268 268 268 268 269 270 269 269 269 269 269 270 270 270 269 269 268 268 268 268 268 268 268 267 267 267 267 267 268 268 267 266 265 266 266 266 266 265
268 267 267 268 270 270 269 269 270 270 270 270 270 270 269 269 268 268 269 269 268 268 267 267 267 267 266 266 268 268 267 266 266 266 266 265 265 265
269 267 266 268 269 270 269 270 270 270 270 270 269 269 269 269 269 269 269 269 268 268 267 267 266 266 267 266 267 268 268 268 267 266 266 265 265 265
269 268 267 268 270 270 270 270 270 270 270 269 269 269 269 269 269 269 269 269 268 268 268 267 267 267 267 267 267 267 267 268 268 266 265 265 265 265
269 269 268 268 269 270 270 270 270 270 269 269 269 268 268 268 268 269 269 268 268 268 268 267 267 267 267 268 267 267 267 267 267 267 266 265 265 265
271 270 269 270 270 270 269 270 270 270 269 269 269 269 269 268 268 268 268 268 268 268 268 268 267 267 267 267 267 267 267 266 267 267 267 265 264 264
271 270 270 271 270 270 269 269 269 269 269 269 269 269 269 268 268 267 267 267 267 267 267 268 268 267 267 267 267 267 267 267 267 267 266 266 265 264
270 271 271 271 271 270 270 270 270 270 270 270 270 269 269 268 268 267 267 267 266 266 266 267 267 267 267 267 267 268 267 267 267 266 265 265 264 263
270 271 272 272 271 271 271 271 270 270 270 270 269 269 268 268 267 267 266 266 266 266 266 266 266 266 266 266 266 267 267 267 267 266 265 264 263 263
271 272 272 272 272 271 270 270 270 270 270 270 269 268 267 267 267 266 266 266 266 266 265 266 266 267 267 267 267 267 267 267 267 266 265 264 264 264
271 272 272 272 271 270 270 269 270 270 270 270 269 267 266 266 266 266 266 266 266 266 266 266 267 267 267 267 267 266 266 266 266 266 265 264 264 264
270 271 272 272 271 270 269 268 269 269 269 269 268 267 266 265 266 266 266 266 267 267 267 267 267 267 267 267 267 266 265 265 266 266 266 266 266 265
270 271 272 272 271 270 269 268 268 268 268 268 267 267 266 265 265 265 266 266 267 267 267 267 267 266 266 266 266 265 265 265 265 264 265 266 267 266
Height
5642 5643 5644 5645 5647 5648 5650 5652 5654 5656 5659 5660 5661 5663 5664 5665 5666 5668 5669 5670 5672 5673 5674 5676 5677 5678 5679 5680 5682 5683 5684 5685 5686 5687 5689 5690 5691 5692
5628 5629 5630 5631 5632 5634 5635 5637 5639 5641 5643 5645 5646 5648 5648 5649 5650 5652 5652 5654 5655 5656 5658 5659 5660 5662 5663 5664 5666 5667 5669 5670 5671 5672 5674 5675 5676 5677
5614 5615 5615 5616 5618 5619 5620 5622 5623 5625 5627 5629 5630 5631 5632 5633 5634 5635 5636 5637 5639 5640 5641 5642 5643 5645 5646 5647 5649 5651 5653 5654 5655 5657 5658 5660 5661 5662
5599 5599 5600 5601 5602 5603 5605 5606 5607 5608 5610 5612 5613 5614 5616 5617 5618 5619 5619 5620 5622 5623 5624 5625 5626 5628 5629 5631 5632 5634 5636 5637 5639 5640 5642 5644 5645 5646
5583 5584 5584 5585 5586 5587 5588 5589 5591 5592 5593 5594 5596 5597 5598 5599 5600 5601 5602 5603 5604 5605 5606 5608 5609 5610 5611 5613 5615 5617 5619 5621 5622 5623 5625 5627 5628 5629
5567 5567 5568 5568 5569 5570 5571 5572 5574 5575 5576 5577 5578 5579 5580 5581 5582 5583 5584 5585 5586 5587 5588 5590 5591 5592 5594 5596 5598 5600 5601 5602 5604 5606 5607 5609 5611 5612
5551 5551 5551 5552 5552 5553 5554 5555 5556 5557 5558 5559 5560 5561 5562 5563 5564 5564 5565 5566 5567 5568 5570 5572 5574 5575 5576 5577 5579 5581 5583 5584 5586 5587 5589 5590 5592 5594
5534 5534 5534 5535 5535 5536 5537 5537 5538 5539 5540 5541 5542 5543 5543 5544 5545 5545 5546 5547 5550 5552 5551 5553 5554 5556 5558 5559 5560 5562 5563 5565 5567 5568 5570 5572 5573 5575
5517 5517 5518 5518 5518 5519 5519 5520 5520 5521 5521 5522 5523 5524 5525 5526 5526 5527 5527 5528 5531 5531 5532 5535 5536 5538 5539 5540 5541 5543 5544 5546 5547 5549 5551 5552 5553 5555
5500 5500 5500 5501 5501 5501 5502 5502 5503 5503 5503 5504 5505 5506 5505 5506 5506 5507 5508 5509 5511 5512 5512 5515 5517 5518 5520 5521 5521 5523 5524 5526 5527 5529 5530 5532 5533 5535
5482 5482 5483 5483 5484 5483 5484 5485 5485 5485 5485 5485 5486 5486 5486 5487 5487 5487 5488 5489 5492 5493 5493 5495 5497 5498 5500 5502 5502 5503 5504 5505 5506 5508 5510 5511 5513 5514
5464 5464 5465 5465 5465 5464 5465 5466 5467 5467 5467 5467 5467 5467 5467 5468 5468 5468 5469 5470 5472 5474 5475 5475 5477 5477 5481 5484 5483 5483 5484 5485 5486 5488 5489 5490 5491 5493
5446 5446 5447 5447 5447 5446 5446 5447 5448 5448 5448 5448 5448 5448 5449 5449 5449 5450 5450 5451 5452 5455 5456 5456 5457 5458 5460 5464 5465 5465 5465 5465 5466 5467 5468 5469 5470 5472
5428 5428 5429 5429 5428 5428 5428 5428 5428 5428 5428 5428 5429 5429 5430 5431 5431 5431 5431 5432 5433 5435 5436 5436 5438 5439 5441 5443 5445 5446 5445 5445 5446 5447 5448 5449 5450 5451
5409 5409 5410 5410 5409 5409 5409 5409 5409 5409 5409 5409 5410 5411 5411 5411 5411 5411 5412 5413 5414 5414 5415 5417 5418 5419 5421 5422 5425 5425 5426 5426 5426 5427 5428 5429 5430 5432
5390 5391 5391 5391 5390 5390 5390 5389 5389 5389 5389 5390 5391 5391 5391 5392 5392 5393 5394 5394 5395 5396 5396 5397 5398 5399 5401 5402 5404 5405 5406 5407 5408 5407 5408 5410 5411 5412
5372 5372 5372 5371 5371 5371 5371 5370 5370 5370 5370 5370 5371 5372 5372 5373 5373 5374 5375 5375 5377 5378 5379 5379 5379 5380 5382 5383 5384 5386 5386 5388 5388 5388 5389 5391 5392 5393
5353 5353 5353 5353 5353 5353 5353 5352 5352 5352 5352 5352 5352 5353 5354 5354 5355 5356 5357 5357 5359 5360 5361 5361 5362 5363 5364 5366 5366 5367 5368 5369 5370 5370 5371 5373 5375 5376
5335 5336 5336 5335 5335 5335 5335 5335 5335 5335 5334 5335 5335 5336 5336 5337 5338 5338 5339 5340 5341 5342 5343 5344 5344 5345 5347 5350 5351 5350 5350 5352 5352 5353 5353 5355 5357 5359
5318 5318 5318 5318 5317 5317 5317 5317 5318 5318 5318 5318 5319 5319 5320 5321 5321 5322 5323 5324 5325 5326 5327 5327 5328 5329 5331 5332 5334 5335 5334 5335 5336 5337 5338 5339 5340 5341
5302 5301 5301 5301 5301 5301 5301 5301 5302 5302 5302 5303 5303 5304 5304 5305 5306 5307 5308 5309 5310 5311 5312 5313 5313 5314 5314 5315 5317 5319 5319 5319 5319 5321 5322 5323 5325 5326
5286 5286 5285 5285 5285 5285 5286 5286 5287 5287 5288 5288 5289 5290 5290 5291 5292 5293 5294 5295 5295 5296 5297 5298 5298 5298 5299 5300 5302 5303 5304 5305 5305 5306 5307 5308 5309 5311
5271 5271 5271 5271 5271 5271 5271 5272 5273 5273 5274 5274 5275 5276 5277 5277 5278 5279 5280 5281 5281 5282 5283 5283 5284 5284 5285 5286 5287 5289 5290 5290 5291 5292 5293 5293 5295 5296